Weather in Siya

Russia / Arkhangel'skaya Oblast'     64°01′25″N   43°10′57″E
temp.,
°C
wind,
m/s
gust,
m/s
humid.,
%
clouds,
%
prec.,
mm/h
press.,
hPa
HPBL,
m
10 august, wed
wed1000:00+14ene1164100 0.0 102428
03:00+13nne116898 0.0 102425
06:00+13n12724 0.0 102481
09:00+18nnw22500 0.0 1023744
12:00+21wnw12373 0.0 10231930
15:00+21wnw23344 0.0 10212174
18:00+20wnw244579 0.0 1021668
21:00+16wsw225897 0.0 102126
11 august, thu
thu1100:00+14wsw276460 0.0 1020160
03:00+11sw387864 0.0 1019147
06:00+13sw3117175 0.0 1019321
09:00+19sw5950100 0.0 1017723
12:00+18sw51158100 0.0 1016747
15:00+23wsw61048100 0.0 10141878
18:00+21sw61257100 0.0 10131490
21:00+18sw61366100 0.0 1011985
12 august, fri
fri1200:00+16wsw61487100 1.0 1010877
03:00+15w41097100 5.3 1011516
06:00+14wsw4109693 0.2 1011532
09:00+16w597990 0.3 10121015
12:00+19wnw585195 0.1 10121850
15:00+18wnw595375 0.1 10131814
18:00+16wnw495884 0.0 10141249
21:00+13wnw4106480 0.1 1016717
13 august, sat
sat1300:00+10w311860 0.0 1018302
03:00+9w311845 0.0 1018296
06:00+10w310775 0.0 1019280
09:00+16wnw59525 0.0 10201404
12:00+18wnw58385 0.0 10212119
15:00+19wnw57345 0.0 10211938
18:00+17nw36415 0.0 10211109
21:00+10nw116154 0.0 102211
14 august, sun
sun1400:00+9sw11655 0.0 102210
03:00+8s226722 0.0 102217
06:00+11s246899 0.0 1021112
09:00+18ssw355153 0.0 1019544
12:00+21ssw4642100 0.0 10181364
15:00+23sw464565 0.0 10171714
18:00+21sw366089 0.0 1016440
21:00+15sw229097 0.0 101645